User: anonymous   Login
Location: Cranbrook Institute of Science
(42.5830°N, 83.2450°W)
Time: 04:02:28
(UTC-04:00)
Language:

CZ-4B R/B - Orbit

View from above orbital plane
View from above orbital plane
View from above satellite
View from above satellite

Ground track
Ground track

The orbit data is extracted from the following two-line orbital elements,

1 29093U 06015B   15091.17196648  .00011751  00000-0  36663-3 0  9995
2 29093 097.4958 177.4133 0079542 326.5824 089.4216 15.30265586493524
Epoch (UTC): 01 April 2015 04:07:37
Eccentricity: 0.0079542
inclination: 97.4958°
perigee height: 420 km
apogee height: 529 km
right ascension of ascending node: 177.4133°
argument of perigee: 326.5824°
revolutions per day: 15.30265586
mean anomaly at epoch: 89.4216°
orbit number at epoch: 49352

The dashed part of the orbit path shows where the satellite is in the earth's shadow,  

DLR